Regional Weather Roundup
Issued by NWS

Home | Current Version | Previous Version | Text Only | Print | Product List | Glossary On
Versions: 1 2 3 4 5 6 7 8 9 10 11 12 13 14 15 16 17 18 19 20 21 22 23 24 25 26 27 28 29 30 31 32 33 34 35 36 37 38 39 40 41 42 43 44 45 46 47 48 49 50
000
ASUS44 KBMX 230810
RWRAL

ALABAMA REGIONAL WEATHER ROUNDUP
NATIONAL WEATHER SERVICE BIRMINGHAM AL
300 AM CDT WED JUL 23 2014

NOTE: "FAIR" INDICATES FEW OR NO CLOUDS BELOW 12,000 FEET
WITH NO SIGNIFICANT WEATHER AND/OR OBSTRUCTIONS TO VISIBILITY.

THE REMARK "TC" DENOTES TEMPERATURE IN DEGREES CELSIUS.

ALZ001>011-014-016>018-020-230900-
NORTH ALABAMA

CITY           SKY/WX    TMP DP  RH WIND       PRES   REMARKS
MUSCLE SHOALS  PTCLDY    75  72  88 CALM      30.07S FOG
HUNTSVILLE     CLOUDY    77  73  87 CALM      30.07F
DECATUR        CLOUDY    75  74  96 CALM      30.07F
HALEYVILLE     FOG       72  72 100 CALM      30.10F VSB 1
GADSDEN        CLEAR     72  70  94 CALM      30.07F
$$

ALZ012-013-022-023-030>036-040>044-230900-
WEST CENTRAL ALABAMA

CITY           SKY/WX    TMP DP  RH WIND       PRES   REMARKS
TUSCALOOSA     CLEAR     73  72  96 CALM      30.05F
$$

ALZ015-024>027-033>036-040>044-230900-
CENTRAL ALABAMA

CITY           SKY/WX    TMP DP  RH WIND       PRES   REMARKS
BIRMINGHAM     PTCLDY    74  71  91 CALM      30.09S
MONTGOMERY     CLEAR     74  71  91 CALM      30.05S
SHELBY CO ARPT CLEAR     73  71  93 CALM      30.06F
MAXWELL AFB    CLEAR     73  73 100 NE2       30.04F
GREENVILLE     FAIR      70  68  93 CALM      30.05S
$$

ALZ019-021-028-029-037-038-045>048-230900-
EAST CENTRAL ALABAMA

CITY           SKY/WX    TMP DP  RH WIND       PRES   REMARKS
ANNISTON       CLEAR     71  69  93 E3        30.07F
ALEXANDER CITY   N/A     73  68  85 CALM      30.07F HAZE
AUBURN         CLEAR     70  66  88 N3        30.10S
$$

ALZ051>064-230900-
SOUTHWEST ALABAMA

CITY           SKY/WX    TMP DP  RH WIND       PRES   REMARKS
MOBILE         CLEAR     70  70 100 CALM      30.04S
BROOKLEY FIELD CLEAR     72  72 100 CALM      30.04S
EVERGREEN      CLEAR     72  71  97 CALM      30.05S FOG
$$

ALZ049-050-065>069-230900-
SOUTHEAST ALABAMA

CITY           SKY/WX    TMP DP  RH WIND       PRES   REMARKS
DOTHAN         CLEAR     72  71  97 CALM      30.08S
OZARK          CLEAR     73  72  96 W2        30.05R
TROY           CLEAR     71  69  93 CALM      30.06S
EUFAULA        FAIR      71  69  93 CALM      30.04S
$$


USA.gov is the U.S. government's official web portal to all federal, state and local government web resources and services.